Weather in Lobachi

Russia / Lipetsk Oblast     53˚24′58″N   38˚58′39″E
temp.,
°C
wind,
m/s
gust,
m/s
humid.,
%
clouds,
%
prec.,
mm/h
press.,
hPa
HPBL,
m
16 january, sat
sat1600:00−14˚n3495100 0.0 1008104
03:00−14˚nnw3695100 0.0 1007178
06:00−14˚nw4696100 0.1 1005176
09:00−13˚nw4795100 0.4 1004265
12:00−13˚nw4795100 0.5 1004393
15:00−13˚wnw6994100 1.3 1005496
18:00−14˚wnw61094100 0.9 1005520
21:00−14˚wnw5995100 1.6 1007611
17 january, sun
sun1700:00−15˚wnw4995100 0.3 1008459
03:00−16˚wnw4895100 0.6 1009366
06:00−17˚wnw3697100 0.1 1010274
09:00−17˚nw3697100 0.3 1012367
12:00−17˚nnw3492100 0.3 1013410
15:00−18˚nnw2393100 0.4 1015337
18:00−19˚nnw2296100 0.2 1016131
21:00−21˚n3496100 0.2 1017116
18 january, mon
mon1800:00−22˚ne119693 0.0 101822
03:00−22˚n229696 0.0 101854
06:00−23˚n339899 0.0 1018116
09:00−24˚ne1197100 0.1 101920
12:00−22˚w1194100 0.0 1020137
15:00−21˚nw1294100 0.0 1018188
18:00−21˚nw1196100 0.0 101932
21:00−21˚nw2295100 0.0 1019119
19 january, tue
tue1900:00−20˚nnw1297100 0.1 1019115
03:00−20˚nw2397100 0.3 1018137
06:00−20˚nw2394100 0.1 1018154
09:00−20˚nw2393100 0.1 1018118
12:00−18˚nnw2390100 0.0 1018222
15:00−18˚nw2493100 0.0 1017217
18:00−19˚nw2394100 0.0 101855
21:00−21˚nw3494100 0.0 101967
20 january, wed
wed2000:00−21˚wnw339895 0.0 102041
03:00−21˚wnw339991 0.0 102134
06:00−21˚wnw339990 0.0 102235
09:00−21˚wnw239884 0.0 102323
12:00−17˚w239558 0.0 1024118
15:00−16˚wsw339529 0.0 102480
18:00−18˚sw23953 0.0 102520
21:00−19˚sw34961 0.0 102551